EN

Hourly Weather Glinki

Today, 30 September, Wednesday

Time Temperature Precipitation Wind Pressure Humidity
00:00 +13°C° 0 mm 4 mps 752 mmHg 42%
01:00 +12°C° 0 mm 4 mps 752 mmHg 45%
02:00 +11°C° 0 mm 4 mps 752 mmHg 48%
03:00 +11°C° 0 mm 4 mps 752 mmHg 51%
04:00 +11°C° 0 mm 4 mps 752 mmHg 53%
05:00 +11°C° 0 mm 4 mps 752 mmHg 55%
06:00 +10°C° 0 mm 5 mps 752 mmHg 57%
07:00 +12°C° 0 mm 5 mps 752 mmHg 57%
08:00 +12°C° 0 mm 5 mps 752 mmHg 57%
09:00 +13°C° 0 mm 6 mps 752 mmHg 58%
10:00 +14°C° 0 mm 6 mps 752 mmHg 52%
11:00 +16°C° 0 mm 6 mps 752 mmHg 45%
12:00 +17°C° 0 mm 7 mps 752 mmHg 39%
13:00 +19°C° 0 mm 6 mps 752 mmHg 39%
14:00 +19°C° 0 mm 6 mps 752 mmHg 39%
15:00 +19°C° 0 mm 6 mps 751 mmHg 39%
16:00 +17°C° 0 mm 6 mps 751 mmHg 43%
17:00 +16°C° 0 mm 5 mps 751 mmHg 47%
18:00 +15°C° 0 mm 4 mps 751 mmHg 51%
19:00 +14°C° 0 mm 5 mps 751 mmHg 52%
20:00 +14°C° 0 mm 5 mps 752 mmHg 54%
21:00 +13°C° 0 mm 5 mps 752 mmHg 55%
22:00 +13°C° 0 mm 5 mps 752 mmHg 56%
23:00 +13°C° 0 mm 5 mps 752 mmHg 56%

Tomorrow, 1 October, Thursday

Time Temperature Precipitation Wind Pressure Humidity
00:00 +12°C° 0 mm 5 mps 752 mmHg 57%
01:00 +12°C° 0 mm 4 mps 752 mmHg 58%
02:00 +11°C° 0 mm 4 mps 752 mmHg 59%
03:00 +11°C° 0 mm 4 mps 752 mmHg 60%
04:00 +11°C° 0 mm 4 mps 752 mmHg 60%
05:00 +11°C° 0 mm 4 mps 752 mmHg 60%
06:00 +10°C° 0 mm 4 mps 752 mmHg 61%
07:00 +10°C° 0 mm 5 mps 752 mmHg 58%
08:00 +12°C° 0 mm 5 mps 752 mmHg 55%
09:00 +13°C° 0 mm 6 mps 753 mmHg 52%
10:00 +15°C° 0 mm 6 mps 753 mmHg 45%
11:00 +16°C° 0 mm 7 mps 753 mmHg 39%
12:00 +17°C° 0 mm 7 mps 753 mmHg 33%
13:00 +18°C° 0 mm 7 mps 753 mmHg 33%
14:00 +18°C° 0 mm 7 mps 752 mmHg 34%
15:00 +19°C° 0 mm 6 mps 752 mmHg 34%
16:00 +17°C° 0 mm 5 mps 752 mmHg 39%
17:00 +16°C° 0 mm 5 mps 752 mmHg 43%
18:00 +14°C° 0 mm 4 mps 752 mmHg 48%
19:00 +14°C° 0 mm 4 mps 752 mmHg 48%
20:00 +14°C° 0 mm 5 mps 752 mmHg 48%
21:00 +13°C° 0 mm 5 mps 753 mmHg 48%
22:00 +13°C° 0 mm 5 mps 753 mmHg 48%
23:00 +13°C° 0 mm 5 mps 753 mmHg 48%

Day after tomorrow, 2 October, Friday

Time Temperature Precipitation Wind Pressure Humidity
00:00 +12°C° 0 mm 4 mps 753 mmHg 49%
01:00 +12°C° 0 mm 4 mps 753 mmHg 50%
02:00 +11°C° 0 mm 4 mps 753 mmHg 51%
03:00 +11°C° 0 mm 4 mps 753 mmHg 53%
04:00 +10°C° 0 mm 4 mps 753 mmHg 54%
05:00 +10°C° 0 mm 4 mps 753 mmHg 56%
06:00 +10°C° 0 mm 4 mps 753 mmHg 57%
07:00 +11°C° 0 mm 4 mps 753 mmHg 57%
08:00 +12°C° 0 mm 4 mps 753 mmHg 57%
09:00 +12°C° 0 mm 5 mps 753 mmHg 57%
10:00 +14°C° 0 mm 5 mps 753 mmHg 55%
11:00 +16°C° 0 mm 5 mps 753 mmHg 52%
12:00 +19°C° 0 mm 6 mps 754 mmHg 49%
13:00 +19°C° 0 mm 6 mps 753 mmHg 48%
14:00 +19°C° 0 mm 6 mps 753 mmHg 48%
15:00 +19°C° 0 mm 6 mps 753 mmHg 47%
16:00 +17°C° 0 mm 5 mps 753 mmHg 52%
17:00 +17°C° 0 mm 4 mps 753 mmHg 57%
18:00 +15°C° 0 mm 4 mps 753 mmHg 62%
19:00 +14°C° 0 mm 4 mps 753 mmHg 64%
20:00 +14°C° 0 mm 4 mps 754 mmHg 66%
21:00 +13°C° 0 mm 4 mps 754 mmHg 68%
22:00 +13°C° 0 mm 4 mps 754 mmHg 69%
23:00 +12°C° 0 mm 4 mps 754 mmHg 70%

3 October, Saturday

Time Temperature Precipitation Wind Pressure Humidity
00:00 +12°C° 0 mm 4 mps 754 mmHg 71%
01:00 +11°C° 0 mm 4 mps 754 mmHg 70%
02:00 +11°C° 0 mm 4 mps 754 mmHg 70%
03:00 +11°C° 0 mm 4 mps 754 mmHg 69%
04:00 +11°C° 0 mm 4 mps 754 mmHg 69%
05:00 +10°C° 0 mm 4 mps 754 mmHg 70%
06:00 +10°C° 0 mm 4 mps 754 mmHg 70%
07:00 +11°C° 0 mm 4 mps 754 mmHg 66%
08:00 +12°C° 0 mm 4 mps 754 mmHg 63%
09:00 +13°C° 0 mm 5 mps 754 mmHg 60%
10:00 +14°C° 0 mm 5 mps 754 mmHg 55%
11:00 +16°C° 0 mm 5 mps 754 mmHg 51%
12:00 +17°C° 0 mm 5 mps 754 mmHg 46%
13:00 +19°C° 0 mm 5 mps 754 mmHg 45%
14:00 +19°C° 0 mm 5 mps 754 mmHg 43%
15:00 +20°C° 0 mm 5 mps 754 mmHg 42%
16:00 +18°C° 0 mm 4 mps 754 mmHg 46%
17:00 +17°C° 0 mm 4 mps 754 mmHg 51%
18:00 +16°C° 0 mm 3 mps 754 mmHg 55%
19:00 +14°C° 0 mm 3 mps 754 mmHg 56%
20:00 +14°C° 0 mm 4 mps 754 mmHg 56%
21:00 +13°C° 0 mm 4 mps 754 mmHg 57%
22:00 +13°C° 0 mm 4 mps 754 mmHg 57%
23:00 +13°C° 0 mm 4 mps 754 mmHg 57%

4 October, Sunday

Time Temperature Precipitation Wind Pressure Humidity
00:00 +13°C° 0 mm 4 mps 754 mmHg 57%
01:00 +12°C° 0 mm 3 mps 754 mmHg 57%
02:00 +12°C° 0 mm 3 mps 754 mmHg 57%
03:00 +12°C° 0 mm 3 mps 754 mmHg 58%
04:00 +11°C° 0 mm 3 mps 754 mmHg 58%
05:00 +11°C° 0 mm 3 mps 754 mmHg 58%
06:00 +11°C° 0 mm 3 mps 755 mmHg 58%
07:00 +11°C° 0 mm 3 mps 755 mmHg 57%
08:00 +12°C° 0 mm 3 mps 755 mmHg 56%
09:00 +13°C° 0 mm 4 mps 755 mmHg 54%
10:00 +14°C° 0 mm 4 mps 755 mmHg 50%
11:00 +15°C° 0 mm 4 mps 755 mmHg 46%
12:00 +18°C° 0 mm 4 mps 755 mmHg 42%
13:00 +18°C° 0 mm 4 mps 755 mmHg 40%
14:00 +19°C° 0 mm 4 mps 755 mmHg 38%
15:00 +19°C° 0 mm 4 mps 755 mmHg 36%
16:00 +18°C° 0 mm 4 mps 755 mmHg 40%
17:00 +15°C° 0 mm 4 mps 755 mmHg 44%
18:00 +14°C° 0 mm 3 mps 754 mmHg 49%
19:00 +13°C° 0 mm 3 mps 755 mmHg 52%
20:00 +13°C° 0 mm 3 mps 755 mmHg 55%
21:00 +12°C° 0 mm 4 mps 755 mmHg 58%
22:00 +12°C° 0 mm 3 mps 755 mmHg 59%
23:00 +12°C° 0 mm 3 mps 755 mmHg 61%

5 October, Monday

Time Temperature Precipitation Wind Pressure Humidity
00:00 +11°C° 0 mm 3 mps 755 mmHg 62%
01:00 +11°C° 0 mm 3 mps 755 mmHg 63%
02:00 +11°C° 0 mm 3 mps 755 mmHg 64%
03:00 +11°C° 0 mm 3 mps 755 mmHg 65%
04:00 +11°C° 0 mm 3 mps 755 mmHg 64%
05:00 +11°C° 0 mm 3 mps 755 mmHg 62%
06:00 +11°C° 0 mm 3 mps 755 mmHg 61%
07:00 +11°C° 0 mm 3 mps 755 mmHg 62%
08:00 +13°C° 0 mm 2 mps 755 mmHg 63%
09:00 +13°C° 0 mm 2 mps 755 mmHg 64%
10:00 +13°C° 0 mm 2 mps 755 mmHg 61%
11:00 +14°C° 0 mm 2 mps 755 mmHg 58%
12:00 +13°C° 0 mm 3 mps 755 mmHg 55%
13:00 +13°C° 0 mm 3 mps 755 mmHg 52%
14:00 +14°C° 0 mm 3 mps 754 mmHg 49%
15:00 +14°C° 0 mm 3 mps 754 mmHg 46%
16:00 +14°C° 0 mm 3 mps 754 mmHg 46%
17:00 +14°C° 0 mm 3 mps 754 mmHg 46%
18:00 +14°C° 0 mm 3 mps 753 mmHg 46%
19:00 +14°C° 0 mm 3 mps 753 mmHg 46%
20:00 +13°C° 0 mm 3 mps 753 mmHg 46%
21:00 +13°C° 0 mm 3 mps 753 mmHg 46%
22:00 +12°C° 0.4 mm 4 mps 753 mmHg 56%
23:00 +12°C° 0.4 mm 4 mps 753 mmHg 66%
Show more

We Need Your Consent

Meteoprog and our Service Providers may store and access personal data such as cookies, device identifiers or other similar technologies on your device and process such data to personalise content and ads, as well as provide social media features and to analyse the traffic.

  • Store and/or access information on your device

    Cookies, device identifiers or other information can be stored or accessed on your device for the purposes indicated above.

  • Personalised ads and content, ad and content measurement, audience insights, and products development

    Ads and content can be personalised based on a profile. More data can be added to better personalise ads and content. Ad and content performance can be measured. Insights about the audience who saw the ads and content can be derived. Such data can be used to develop or improve user’s experience, systems and software.

By clicking ‘I Agree’ you will allow the use of indicated cookies, device identifiers, web beacons or other similar technologies. Your settings can be changed in the browser on your device.

For certain purposes, legitimate interests may be relied on, rather than consent. You can read more about this in our Privacy and Cookie Policy.